This demonstration page uses our WeatherBlox Daily Observations layout. Learn more.

Left ArrowRight Arrow

39.51506, -84.39828

Hourly Observations for September 23, 2020

Temp ( °F °C ) Dew Point ( °F °C ) Humidity (%) Winds ( mph kmh ) Pressure ( in mb ) Visibility ( mi km ) Precip ( " mm )
12:15 am 00:15 Clear 52 11.1 49 9.7 91 91 Calm 30.14 1021 10 16.0934 0 0
12:35 am 00:35 Clear 52 11 49 9.6 91 91 Calm 30.14 1021 10 16.0934 0 0
12:55 am 00:55 Clear 51 10.7 49 9.7 94 94 Calm 30.14 1021 10 16.0934 0 0
1:15 am 01:15 Clear 51 10.7 50 10 95 95 Calm 30.14 1021 10 16.0934 0 0
1:35 am 01:35 Clear 51 10.5 50 9.9 96 96 Calm 30.14 1021 10 16.0934 0 0
1:55 am 01:55 Clear 50 10 49 9.4 96 96 Calm 30.14 1021 10 16.0934 0 0
2:15 am 02:15 Clear 51 10.3 50 9.8 97 97 Calm 30.13 1020 10 16.0934 0 0
2:35 am 02:35 Clear 50 10 49 9.6 97 97 Calm 30.13 1020 10 16.0934 0 0
2:55 am 02:55 Clear 49 9.7 49 9.5 99 99 Calm 30.13 1020 10 16.0934 0 0
3:15 am 03:15 Clear 49 9.6 49 9.5 99 99 Calm 30.13 1020 10 16.0934 0 0
3:35 am 03:35 Clear 49 9.4 49 9.3 99 99 Calm 30.13 1020 10 16.0934 0 0
3:55 am 03:55 Clear 48 9 48 9 100 100 Calm 30.13 1020 10 16.0934 0 0
4:15 am 04:15 Clear 48 9 48 9 100 100 Calm 30.13 1020 10 16.0934 0 0
4:35 am 04:35 Clear 48 9 N/A N/A Calm 30.13 1020 10 16.0934 0 0
4:55 am 04:55 Clear 48 9 N/A N/A Calm 30.13 1020 7 11.26538 0 0
5:15 am 05:15 Clear 48 9 N/A N/A Calm 30.13 1020 10 16.0934 0 0
5:35 am 05:35 Clear 48 9 N/A N/A Calm 30.13 1020 10 16.0934 0 0
5:55 am 05:55 Clear 48 9 N/A N/A Calm 30.13 1020 10 16.0934 0 0
6:15 am 06:15 Clear 48 9 N/A N/A Calm 30.13 1020 10 16.0934 0 0
6:35 am 06:35 Clear 48 9 N/A N/A Calm 30.13 1020 10 16.0934 0 0
6:55 am 06:55 Clear 46 8 N/A N/A Calm 30.13 1020 10 16.0934 0 0
7:15 am 07:15 Hazy 48 9 N/A N/A Calm 30.15 1021 5 8.0467 0 0
7:35 am 07:35 Mostly Cloudy with Fog 46 8 N/A N/A Calm 30.15 1021 0.5 0.80467 0 0
7:55 am 07:55 Sunny 48 9 N/A N/A Calm 30.15 1021 7 11.26538 0 0
8:15 am 08:15 Sunny 48 9 N/A N/A Calm 30.14 1021 10 16.0934 0 0
8:35 am 08:35 Sunny 50 10 N/A N/A Calm 30.14 1021 10 16.0934 0 0
8:55 am 08:55 Sunny 52 11.1 52 10.9 99 99 Calm 30.14 1021 10 16.0934 0 0
9:15 am 09:15 Sunny 55 12.6 53 11.7 94 94 Calm 30.13 1020 10 16.0934 0 0
9:35 am 09:35 Sunny 58 14.4 53 11.9 85 85 SSW 3 6 30.14 1021 10 16.0934 0 0
9:55 am 09:55 Sunny 60 15.4 54 12 80 80 Calm 30.14 1021 10 16.0934 0 0
10:15 am 10:15 Sunny 62 16.7 54 12.1 74 74 Calm 30.13 1020 10 16.0934 0 0
10:35 am 10:35 Sunny 64 17.9 54 12.1 69 69 Calm 30.13 1020 10 16.0934 0 0
10:55 am 10:55 Sunny 67 19.3 55 12.5 65 65 Calm 30.12 1020 10 16.0934 0 0
11:15 am 11:15 Sunny 69 20.4 55 12.7 61 61 Calm 30.11 1020 10 16.0934 0 0
11:35 am 11:35 Sunny 71 21.9 55 12.9 57 57 Calm 30.11 1020 10 16.0934 0 0
11:55 am 11:55 Sunny 72 22.1 55 12.5 55 55 Calm 30.1 1019 10 16.0934 0 0
12:15 pm 12:15 Sunny 73 22.7 55 12.6 53 53 Calm 30.09 1019 10 16.0934 0 0
12:35 pm 12:35 Sunny 73 23 54 12.4 51 51 SSE 5 7 30.09 1019 10 16.0934 0 0
12:55 pm 12:55 Sunny 75 23.7 55 12.8 51 51 SSW 5 7 30.08 1018 10 16.0934 0 0
1:15 pm 13:15 Sunny 74 23.6 55 12.6 50 50 S 5 7 30.07 1018 10 16.0934 0 0
1:35 pm 13:35 Sunny 75 23.9 54 12.4 49 49 S 3 6 30.07 1018 10 16.0934 0 0
1:55 pm 13:55 Sunny 76 24.6 55 12.5 47 47 S 6 9 30.05 1018 10 16.0934 0 0
2:15 pm 14:15 Sunny 75 24 54 12.2 48 48 SSW 6 9 30.05 1017 10 16.0934 0 0
2:35 pm 14:35 Sunny 76 24.3 54 12.1 47 47 SSW 5 7 30.03 1017 10 16.0934 0 0
2:55 pm 14:55 Sunny 76 24.4 54 12 46 46 W 5 7 30.03 1017 10 16.0934 0 0
3:15 pm 15:15 Sunny 78 25.3 54 12.3 44 44 SW 6 9 30.03 1017 10 16.0934 0 0
3:35 pm 15:35 Sunny 77 25.1 54 12.1 44 44 W 8 13 30.02 1017 10 16.0934 0 0
3:55 pm 15:55 Sunny 76 24.4 53 11.8 45 45 SW 7 11 30.02 1017 10 16.0934 0 0
4:15 pm 16:15 Sunny 76 24.2 53 11.8 46 46 SW 6 9 30.02 1017 10 16.0934 0 0
4:35 pm 16:35 Sunny 75 24.1 53 11.9 47 47 WSW 6 9 30.03 1017 10 16.0934 0 0
4:55 pm 16:55 Sunny 75 24 54 12 47 47 W 7 11 30.03 1017 10 16.0934 0 0
5:15 pm 17:15 Sunny 75 23.8 54 12.2 48 48 W 6 9 30.03 1017 10 16.0934 0 0
5:35 pm 17:35 Sunny 74 23.5 54 12.4 50 50 W 7 11 30.03 1017 10 16.0934 0 0
5:55 pm 17:55 Sunny 74 23.2 55 12.6 51 51 WSW 7 11 30.03 1017 10 16.0934 0 0
6:15 pm 18:15 Sunny 73 22.8 55 12.6 53 53 WSW 5 7 30.03 1017 10 16.0934 0 0
6:35 pm 18:35 Sunny 72 22.3 55 12.8 55 55 WSW 3 6 30.03 1017 10 16.0934 0 0
6:55 pm 18:55 Sunny 71 21.5 56 13.1 59 59 Calm 30.03 1017 10 16.0934 0 0
7:15 pm 19:15 Sunny 69 20.4 56 13.6 65 65 SW 3 6 30.03 1017 10 16.0934 0 0
7:35 pm 19:35 Clear 67 19.6 56 13.5 68 68 Calm 30.04 1017 10 16.0934 0 0
7:55 pm 19:55 Clear 66 18.8 56 13.5 71 71 Calm 30.04 1017 10 16.0934 0 0
8:15 pm 20:15 Clear 65 18.4 56 13.6 74 74 Calm 30.04 1017 10 16.0934 0 0
8:35 pm 20:35 Clear 65 18.1 57 13.8 76 76 Calm 30.04 1017 10 16.0934 0 0
8:55 pm 20:55 Clear 64 17.9 57 13.7 77 77 Calm 30.04 1017 10 16.0934 0 0
9:15 pm 21:15 Clear 64 18 57 13.7 76 76 Calm 30.05 1018 10 16.0934 0 0
9:35 pm 21:35 Clear 66 18.8 56 13.4 71 71 Calm 30.05 1018 10 16.0934 0 0
9:55 pm 21:55 Clear 65 18.1 56 13.5 75 75 SSW 3 6 30.05 1018 10 16.0934 0 0
10:15 pm 22:15 Clear 65 18.6 56 13.3 71 71 Calm 30.05 1018 10 16.0934 0 0
10:35 pm 22:35 Clear 64 18 56 13.4 75 75 SSW 3 6 30.04 1017 10 16.0934 0 0
10:55 pm 22:55 Clear 62 16.8 57 13.9 83 83 Calm 30.05 1018 N/A 0 0
11:15 pm 23:15 Clear 63 17 57 13.8 82 82 Calm 30.05 1018 10 16.0934 0 0
11:35 pm 23:35 Clear 60 15.5 57 14.1 91 91 Calm 30.06 1018 10 16.0934 0 0
11:55 pm 23:55 Clear 59 15.2 57 14.1 93 93 Calm 30.06 1018 10 16.0934 0 0

Powered by AerisWeather